Matagami Airport
CYNM : now visible

Airfield :











YOU CAN JOIN US ON...

 
LOGIN :

Register | Disclaimer

   EN    FR    IT 

 









Legend :    VFR   Marginal VFR   IFR   Intensive IFR   Very Intensive IFR
Visi :
Ceiling :
>= 8 km
>= 3000ft
5 to 8 km
1000 to 3000 ft
1500m to 5 km
500 to 1000 ft
800 to 1500m
200 to 500 ft
< 800m
< 200 ft
Symbols :   Thunderstorms  Fog  Heavy snow  Heavy precipitations  Wind > 20 kt






- Airport Elevation : 918 ft
- IATA code : YNM


CYNM - Matagami

CURRENT METAR :
  • 281130Z AUTO 32006KT 9SM BKN027 BKN035 M07/M09 A2979 RMK SLP111

EXPIRED METARs :
  • 281100Z AUTO 32009KT 9SM OVC021 M06/M09 A2978 RMK SLP104
  • 281000Z AUTO 33007KT 9SM OVC019 M06/M09 A2975 RMK SLP095
  • 280931Z AUTO 34008KT 9SM SCT020 BKN024 OVC033 M06/M09 A2974 RMK SLP092
  • 280919Z AUTO 34008KT 9SM SCT018 OVC033 M06/M09 A2973 RMK SLP090
  • 280900Z AUTO 34007KT 9SM OVC018 M06/M08 A2973 RMK SLP087

TAF N/A
CZUL FIR / North America



MET'MAP, your aeronautical weather chart ! - Copyright ORBIFLY December 2007 - Disclaimer

ORBIFLY MET'MAP TEAM :

Programming & Development : Alexandra Zaïnal
Original concept : Baudouin d'Aumeries
Technical & hardware support : Manuel Goepfert
Assistance : Marc-Olivier Méhu




SOURCES & CREDITS :

   NOAA       Earth
Advisory